Simultaneous Nadir Overpasses (SNOs) Predictions

Prediction of SNOs near US between AQUA and NPP Satellite Orbit:

Table of predicted SNOs near US for the next 10.0 days since TLE Epoch: 6/7/2015
Index Date (AQUA) Time (AQUA) AQUA Lat,Lon Date (NPP) Time (NPP) NPP Lat,Lon Distance(km) Time Diff (sec)
1 06/07/2015 07:19:38 49.93, -76.08 06/07/2015 07:24:52 50.37, -78.20 159.15 314
2 06/07/2015 08:58:31 49.94,-100.80 06/07/2015 09:06:20 50.48,-103.53 203.58 469
3 06/09/2015 18:17:48 50.00, -80.26 06/09/2015 18:15:08 49.73, -81.72 108.69 160
4 06/09/2015 19:56:41 49.99,-104.98 06/09/2015 19:56:36 49.62,-107.04 153.90 5
5 06/09/2015 21:29:27 28.05,-122.72 06/09/2015 21:31:46 27.54,-125.08 238.86 139
6 06/12/2015 07:46:30 20.04, -89.62 06/12/2015 07:39:52 19.97, -89.39 24.58 398
7 06/12/2015 09:21:13 35.08,-110.52 06/12/2015 09:17:03 35.12,-110.72 18.48 250
8 06/15/2015 06:31:07 46.67, -65.04 06/15/2015 06:35:01 47.05, -66.95 151.63 234
9 06/15/2015 08:09:05 49.94, -88.45 06/15/2015 08:15:32 50.44, -90.87 181.11 387




NCC Satellite Simultaneous Nadir Overpasses (SNOs) Prediction Service
